Wind_Speed
4 4 7 6 6 5 4 4 6 4 6 6 5 7 17 15 24 20 23 25 26 28 27 27 27 22 24 21 18 17 15 17 14 13 14 13 10 9 8 7 5 4 5 4
5 6 6 7 7 7 1 7 5 9 7 3 7 4 13 10 19 30 14 26 28 29 31 28 26 26 26 23 20 20 18 15 13 11 12 13 12 8 8 6 5 3 4 6
6 3 7 5 5 7 3 4 5 6 8 3 1 4 10 7 16 29 20 17 32 34 34 32 34 29 28 25 21 22 19 16 15 12 13 12 11 9 11 8 6 5 3 4
3 2 7 3 4 6 5 10 9 17 7 4 7 4 8 14 7 10 22 23 25 36 33 37 33 32 31 27 23 21 21 17 18 15 14 12 9 8 10 6 7 6 6 5
5 5 5 3 4 6 4 6 9 10 3 4 3 2 2 11 13 14 33 20 28 35 36 39 37 34 33 29 26 24 23 19 20 17 16 14 11 9 8 7 7 8 7 7
4 1 5 7 4 8 7 9 10 4 3 1 7 4 4 9 20 15 25 32 26 33 36 38 38 34 35 31 28 26 26 22 19 17 18 16 13 10 11 10 8 7 8 8
4 3 3 5 4 1 2 5 3 3 0 5 2 4 5 3 6 22 25 35 33 37 36 40 38 37 37 35 31 29 27 26 22 18 18 17 14 11 10 10 8 9 8 8
5 3 7 4 8 7 8 8 6 5 5 2 3 4 4 3 9 18 24 27 30 37 37 38 38 36 38 38 34 31 29 27 25 21 19 19 17 10 6 7 10 9 6 5
3 5 4 5 4 9 5 3 6 7 3 4 2 3 4 5 5 15 21 25 26 34 36 39 37 38 37 37 36 33 32 30 24 23 20 19 19 14 10 9 9 12 8 7
4 2 3 4 4 2 6 6 3 3 5 3 2 3 3 2 7 8 11 16 14 22 27 30 31 30 33 36 34 33 34 30 27 23 20 19 18 15 11 9 5 9 10 9
3 3 6 1 2 7 2 1 5 5 4 6 4 5 3 6 10 8 11 14 17 17 21 27 31 31 30 29 31 32 35 30 22 29 23 19 20 19 14 12 9 9 10 9
1 4 3 7 2 2 2 5 6 5 4 1 3 4 1 8 13 17 12 13 13 15 17 22 23 25 31 36 35 28 29 31 26 26 24 20 20 20 19 17 12 12 12 11
4 2 2 7 6 5 4 2 4 5 4 5 6 4 5 11 12 15 19 18 16 14 14 14 18 22 32 33 25 15 19 26 32 20 22 21 21 18 19 18 17 16 16 15
4 3 4 5 5 3 4 5 2 4 4 6 5 9 11 13 13 15 15 15 15 14 14 18 20 18 23 16 16 4 11 17 15 16 21 14 16 16 13 15 16 16 15 16
3 4 2 2 4 3 3 5 5 3 5 6 8 10 17 17 13 18 18 15 14 13 14 14 16 24 28 23 20 22 17 17 15 16 18 19 10 10 9 8 13 17 18 17
4 1 1 2 3 7 3 14 10 3 2 4 8 2 8 18 17 18 19 19 18 16 14 16 18 17 21 21 24 20 19 13 9 14 15 13 13 24 11 6 8 6 11 15
4 2 3 2 6 5 6 9 5 5 1 4 6 7 14 16 18 18 21 22 21 22 22 20 20 20 18 17 16 19 15 14 11 9 12 15 22 17 19 17 15 14 14 13
3 3 2 1 4 2 5 2 4 3 5 4 3 11 17 19 18 20 23 26 26 26 26 24 25 25 23 20 18 17 15 14 11 9 7 9 12 14 16 19 8 12 14 14
6 4 3 2 1 4 2 2 4 4 4 2 8 14 20 28 27 16 22 26 28 27 27 26 24 24 23 21 18 19 18 18 16 16 13 10 10 10 11 15 11 8 13 17
4 6 3 3 4 5 4 1 9 1 5 5 9 18 26 25 7 5 24 28 25 24 25 25 24 23 21 19 15 14 16 14 14 12 11 8 6 4 6 9 7 4 4 5
4 4 3 1 2 5 5 15 3 3 5 12 22 19 22 6 8 26 30 29 27 26 25 23 22 19 16 13 8 7 8 6 8 8 6 6 5 4 3 2 2 3 2 4
2 2 1 2 2 2 14 7 3 3 12 16 22 28 25 17 28 33 33 30 28 26 25 21 17 14 13 8 4 3 2 2 2 2 2 2 2 2 2 2 2 2 3 4
1 4 3 6 5 4 7 6 10 8 7 11 24 27 24 29 37 35 33 31 28 25 22 17 12 10 9 5 2 1 2 2 3 3 4 5 5 4 5 5 4 5 4 5
3 1 2 2 3 4 5 6 9 7 6 15 21 27 24 33 37 34 31 26 23 21 17 13 9 8 5 2 1 2 4 5 5 4 3 2 3 3 4 5 5 6 8 8
3 1 3 3 5 4 2 4 6 7 4 9 18 25 26 30 34 32 29 26 21 17 14 10 5 1 2 2 0 1 2 3 5 5 4 3 2 1 1 2 3 4 5 6
4 4 4 5 4 3 3 2 4 9 7 11 17 20 21 27 34 30 27 19 16 18 13 9 6 7 6 4 2 2 3 4 5 6 6 5 4 3 3 3 3 3 6 8
Wind_Direction
190 104 192 184 174 155 138 104 94 63 61 52 332 160 173 173 173 171 186 178 184 195 206 202 200 194 189 188 190 182 179 179 180 179 181 183 177 169 170 174 163 147 172 152
61 218 205 176 151 130 177 113 86 76 115 68 339 212 167 170 170 181 188 187 183 191 196 201 196 201 195 192 201 193 190 198 199 196 190 191 193 203 201 192 184 182 191 208
147 211 157 153 149 133 179 137 179 135 127 61 82 132 177 232 167 189 211 204 192 197 193 201 199 201 197 195 196 200 201 203 207 200 194 188 194 205 213 214 211 202 188 179
168 198 138 161 156 149 168 193 152 136 138 183 199 172 214 198 192 199 190 223 199 198 201 197 198 200 200 199 196 197 198 204 207 206 207 208 217 224 221 227 214 200 180 175
231 154 159 154 193 171 201 144 140 149 112 110 202 163 192 161 203 198 213 215 199 196 198 197 197 200 202 199 198 197 197 197 203 213 215 224 232 229 222 226 220 218 211 205
213 181 146 197 179 179 165 90 57 61 68 315 207 167 214 190 208 200 204 214 209 198 202 204 202 202 203 203 203 202 202 201 207 215 215 222 227 222 236 232 227 219 217 199
317 243 223 162 141 170 184 116 76 67 65 225 227 135 243 256 212 198 192 200 205 201 202 201 202 205 207 206 205 206 206 210 211 216 215 218 227 239 231 210 217 230 227 211
160 285 173 185 171 186 193 170 151 154 182 227 123 222 260 253 266 198 189 189 190 196 201 203 205 209 212 212 210 210 210 213 216 218 220 221 224 238 207 232 225 218 240 235
136 278 297 205 163 141 201 183 176 105 48 92 239 292 302 356 77 133 150 162 183 189 199 200 208 213 214 217 218 219 217 217 220 224 225 221 225 231 234 238 237 233 220 214
202 286 253 292 134 76 161 163 89 2 128 163 278 277 220 188 116 116 120 138 147 179 189 196 204 213 222 221 223 227 227 220 227 228 230 233 231 233 233 237 245 210 205 218
133 115 289 314 174 181 132 140 47 109 109 149 157 258 205 182 138 128 121 139 158 163 196 211 215 224 219 223 234 238 231 224 229 230 234 239 238 235 239 240 242 227 235 243
222 140 233 242 260 239 245 185 150 128 215 85 139 239 66 129 129 126 129 147 160 172 179 201 214 215 208 218 233 240 236 223 223 224 227 239 240 238 234 239 240 247 246 245
193 46 10 348 354 11 53 340 118 112 98 184 140 224 148 148 152 148 152 153 155 159 179 189 206 210 206 213 221 232 231 221 220 223 225 232 239 238 232 240 245 246 250 241
120 103 174 184 213 205 329 341 141 109 119 162 201 154 175 178 166 147 141 142 150 158 162 168 179 181 188 189 209 165 207 222 203 241 219 226 231 226 228 237 242 248 252 252
86 127 191 238 286 138 49 7 316 204 174 149 187 184 189 178 162 147 145 147 146 149 149 170 166 161 174 170 180 202 223 220 218 206 182 186 183 192 209 243 254 253 254 253
17 150 100 293 241 75 44 14 5 53 91 62 132 72 131 140 144 142 143 141 140 143 153 148 156 166 171 181 190 200 204 204 184 206 220 224 223 241 231 262 289 270 263 263
65 76 47 240 327 54 23 352 323 289 159 143 158 196 146 144 155 154 141 137 135 138 149 142 140 140 141 149 161 171 182 191 196 198 208 223 234 239 243 255 275 255 260 267
77 74 51 156 15 115 217 39 284 80 9 356 53 139 143 139 138 143 148 146 139 138 134 134 134 133 132 132 134 137 148 154 164 173 189 203 224 226 236 209 267 289 272 255
4 114 73 122 39 307 54 46 355 359 317 342 138 128 130 125 120 115 156 153 145 141 136 131 129 125 122 117 117 124 125 125 130 129 138 141 160 186 198 218 240 290 275 251
68 65 115 137 127 201 208 121 346 223 316 179 149 147 144 142 143 145 155 156 148 145 146 137 131 125 117 109 111 112 107 111 112 110 115 121 136 170 212 240 255 252 284 277
360 6 92 56 167 292 303 321 0 121 246 174 164 155 157 150 144 152 161 156 153 146 144 147 142 137 128 123 120 108 99 102 96 99 107 115 118 114 102 78 67 79 162 137
145 119 137 69 79 269 345 354 16 289 320 184 175 164 160 142 149 158 159 157 154 147 146 152 153 143 131 133 129 120 141 143 164 197 226 204 187 179 170 182 179 148 150 162
350 176 189 173 219 263 327 294 324 295 271 200 182 174 159 152 157 161 159 159 161 159 158 160 168 160 148 143 151 198 262 261 244 228 218 220 224 228 234 246 246 245 235 217
340 127 107 60 288 327 353 10 12 3 241 204 187 172 167 159 161 162 162 169 166 161 162 165 164 154 148 163 197 159 167 192 211 223 211 188 196 214 242 249 245 245 258 270
198 94 140 300 297 323 317 59 75 79 115 175 175 174 174 171 166 167 168 169 171 173 170 171 177 205 301 286 278 120 114 163 178 178 177 178 163 166 218 263 296 301 286 274
188 176 154 212 208 204 223 196 153 146 147 174 173 170 181 185 173 174 170 177 199 197 190 200 237 267 265 254 242 201 165 151 146 147 143 133 118 110 90 58 25 350 333 330
Height
1500 1507 1512 1508 1507 1508 1508 1512 1518 1523 1523 1525 1529 1528 1531 1535 1539 1543 1547 1551 1555 1559 1561 1566 1571 1576 1577 1580 1582 1583 1586 1589 1591 1594 1596 1598 1600 1602 1604 1606 1607 1608 1610 1611
1505 1510 1502 1501 1504 1508 1513 1516 1526 1527 1528 1527 1530 1532 1533 1535 1538 1539 1545 1550 1553 1557 1560 1564 1569 1573 1577 1578 1581 1583 1585 1588 1591 1594 1596 1598 1600 1602 1604 1606 1607 1608 1610 1611
1505 1501 1499 1502 1506 1510 1514 1516 1523 1522 1528 1531 1534 1539 1537 1538 1541 1544 1545 1549 1551 1553 1557 1561 1566 1570 1575 1576 1578 1581 1584 1587 1590 1593 1595 1597 1599 1602 1603 1605 1607 1608 1609 1611
1499 1496 1499 1502 1507 1508 1519 1508 1511 1523 1530 1544 1533 1550 1539 1536 1540 1542 1544 1546 1549 1550 1553 1557 1563 1567 1570 1574 1577 1580 1584 1586 1589 1592 1594 1597 1599 1601 1603 1605 1606 1608 1609 1610
1501 1498 1500 1504 1504 1504 1506 1502 1510 1520 1531 1534 1538 1543 1536 1534 1540 1538 1535 1540 1545 1547 1550 1555 1559 1563 1567 1573 1575 1579 1583 1586 1589 1591 1593 1596 1598 1601 1603 1604 1606 1607 1608 1610
1493 1492 1493 1496 1496 1498 1499 1506 1521 1528 1535 1547 1532 1535 1538 1534 1522 1529 1533 1538 1541 1544 1548 1551 1556 1561 1566 1571 1575 1578 1581 1584 1587 1589 1592 1595 1598 1600 1601 1603 1605 1606 1608 1609
1495 1493 1490 1491 1499 1499 1501 1514 1551 1554 1557 1549 1531 1536 1528 1523 1518 1519 1523 1529 1535 1540 1544 1549 1554 1559 1564 1567 1571 1575 1579 1582 1585 1587 1590 1593 1596 1599 1599 1602 1605 1606 1607 1608
1511 1511 1491 1486 1493 1502 1506 1508 1533 1548 1556 1543 1531 1536 1520 1517 1516 1516 1521 1528 1531 1535 1540 1545 1550 1555 1560 1564 1568 1572 1575 1579 1583 1586 1588 1592 1595 1598 1600 1601 1602 1604 1606 1608
1511 1504 1483 1483 1482 1486 1499 1510 1497 1524 1530 1538 1538 1527 1517 1511 1512 1514 1519 1525 1530 1531 1535 1540 1547 1552 1556 1562 1567 1571 1574 1578 1581 1585 1588 1590 1593 1596 1599 1601 1601 1602 1604 1606
1497 1508 1486 1480 1479 1483 1488 1489 1512 1522 1540 1541 1540 1536 1527 1518 1518 1518 1521 1524 1529 1532 1536 1541 1546 1549 1555 1560 1565 1570 1573 1577 1581 1584 1587 1589 1592 1594 1596 1598 1599 1601 1602 1605
1494 1502 1495 1484 1485 1490 1492 1497 1505 1511 1521 1539 1549 1535 1514 1515 1515 1520 1523 1524 1528 1531 1536 1540 1544 1547 1552 1557 1561 1565 1570 1574 1576 1581 1584 1586 1589 1592 1594 1596 1597 1599 1601 1603
1493 1504 1507 1492 1481 1482 1481 1486 1493 1514 1523 1529 1528 1531 1511 1512 1515 1520 1525 1528 1529 1530 1534 1538 1541 1545 1550 1554 1557 1560 1564 1570 1574 1576 1579 1582 1586 1588 1590 1593 1595 1597 1599 1601
1491 1507 1513 1500 1493 1485 1489 1485 1490 1498 1508 1522 1524 1529 1514 1516 1519 1521 1524 1526 1528 1529 1533 1535 1537 1540 1544 1549 1554 1558 1560 1564 1569 1570 1575 1579 1582 1584 1587 1590 1592 1594 1596 1598
1487 1505 1505 1514 1505 1501 1496 1491 1487 1494 1509 1520 1518 1515 1513 1515 1517 1520 1523 1526 1528 1531 1533 1534 1537 1539 1544 1550 1553 1548 1557 1560 1559 1569 1570 1576 1581 1582 1583 1586 1588 1590 1593 1595
1490 1502 1499 1496 1496 1494 1496 1498 1491 1489 1493 1497 1505 1507 1502 1506 1513 1517 1520 1525 1528 1531 1532 1535 1536 1537 1544 1547 1548 1553 1557 1561 1564 1566 1567 1573 1578 1579 1580 1583 1585 1586 1589 1591
1494 1504 1499 1499 1494 1492 1497 1495 1494 1491 1495 1495 1499 1504 1499 1509 1513 1516 1519 1522 1526 1529 1534 1535 1536 1537 1541 1545 1546 1550 1556 1557 1559 1563 1566 1569 1570 1575 1577 1579 1583 1584 1586 1588
1500 1508 1511 1506 1502 1493 1511 1505 1504 1499 1493 1496 1501 1493 1496 1507 1513 1517 1519 1523 1528 1530 1532 1536 1537 1538 1541 1544 1546 1549 1552 1555 1557 1560 1564 1566 1568 1570 1573 1576 1580 1581 1583 1586
1497 1510 1517 1516 1509 1521 1502 1498 1501 1499 1497 1494 1494 1494 1497 1505 1512 1517 1521 1525 1530 1534 1535 1537 1538 1540 1543 1546 1548 1550 1552 1555 1557 1560 1563 1563 1566 1569 1571 1571 1576 1577 1579 1583
1499 1509 1520 1519 1526 1513 1500 1502 1505 1503 1503 1497 1496 1499 1504 1507 1514 1522 1525 1529 1533 1536 1537 1541 1543 1544 1546 1549 1552 1553 1555 1557 1559 1559 1563 1565 1567 1570 1572 1571 1574 1575 1577 1578
1502 1505 1509 1524 1521 1526 1504 1502 1500 1500 1510 1497 1499 1500 1502 1505 1515 1523 1527 1531 1535 1538 1540 1544 1546 1548 1549 1552 1555 1556 1558 1560 1562 1564 1565 1567 1568 1570 1571 1572 1573 1576 1576 1576
1517 1518 1522 1523 1520 1516 1501 1499 1497 1509 1516 1497 1498 1503 1508 1509 1513 1521 1527 1533 1537 1539 1540 1546 1549 1549 1550 1554 1558 1559 1561 1563 1564 1566 1568 1568 1570 1570 1572 1572 1574 1575 1575 1578
1519 1523 1525 1529 1525 1517 1503 1496 1500 1503 1496 1498 1500 1499 1504 1511 1515 1522 1528 1534 1537 1540 1544 1548 1550 1551 1551 1555 1557 1558 1561 1563 1564 1566 1567 1568 1569 1571 1573 1573 1574 1575 1576 1576
1520 1518 1521 1522 1522 1511 1508 1505 1502 1500 1500 1500 1501 1505 1507 1510 1516 1524 1530 1536 1539 1541 1545 1549 1552 1552 1552 1554 1557 1558 1560 1562 1563 1564 1565 1566 1567 1568 1570 1572 1572 1572 1574 1575
1513 1513 1517 1516 1511 1509 1507 1505 1502 1499 1498 1500 1504 1508 1512 1513 1519 1527 1529 1536 1540 1544 1547 1550 1552 1553 1554 1556 1557 1557 1559 1562 1562 1561 1562 1563 1564 1565 1567 1568 1569 1569 1571 1571
1515 1515 1517 1517 1511 1510 1509 1508 1506 1504 1503 1504 1508 1511 1514 1517 1524 1529 1531 1537 1542 1546 1547 1550 1550 1551 1552 1553 1554 1554 1555 1560 1560 1560 1561 1562 1563 1563 1565 1566 1565 1567 1568 1567
1510 1511 1517 1518 1511 1511 1511 1511 1509 1509 1508 1508 1510 1514 1519 1520 1523 1529 1534 1539 1543 1546 1547 1549 1551 1552 1553 1554 1554 1555 1557 1559 1560 1561 1562 1562 1562 1564 1564 1564 1566 1566 1565 1565